Location: Harburg
(48.7667°N, 10.6667°E)
Time: 05:14:18
(UTC+00:00)

ATLAS 3B R/B - Pass Details

Date: 18 September 2020
Orbit: 1016 x 1179 km, 63.8° (Epoch: 04 October)

Event Time Altitude Azimuth Distance (km) Brightness Sun altitude
Rises 17:39:18 0° 302° (WNW) 3,780 6.9 -3.5°
Reaches altitude 10° 17:42:33 10° 317° (NW) 2,844 5.8 -4.0°
Maximum altitude 17:47:44 23° 8° (N) 2,076 4.3 -4.9°
Drops below altitude 10° 17:53:04 10° 59° (ENE) 2,919 4.5 -5.8°
Enters shadow 17:55:34 - 71° (ENE) 3,640 4.9 -6.2°
